Location: Unspecified
(0.0000°N, 0.0000°E)
Time: 07:46:00
(UTC+00:00)

Vanguard 2 Rocket - Pass Details

Date: 15 October 2022
Orbit: 555 x 3321 km, 32.9° (Epoch: 06 December)

Event Time Altitude Azimuth Distance (km) Brightness Sun altitude
Rises 14:39:43 0° 229° (SW) 4,849 11.2 45.8°
Reaches altitude 10° 14:42:24 10° 227° (SW) 4,157 11.1 45.2°
Maximum altitude 14:54:40 76° 142° (SE) 2,668 9.9 42.2°
Drops below altitude 10° 15:14:10 10° 59° (ENE) 6,237 10.8 37.4°
Sets 15:19:13 0° 58° (ENE) 7,302 11.0 36.2°
